Regional Weather Roundup
Issued by NWS

Home | Current Version | Previous Version | Graphics & Text | Print | Product List | Glossary On
Versions: 1 2 3 4 5 6 7 8 9 10 11 12 13 14 15 16 17 18 19 20 21 22 23 24 25 26 27 28 29 30 31 32 33 34 35 36 37 38 39 40 41 42 43 44 45 46 47 48 49 50
000
ASUS43 KLOT 020521
RWRIL

ILLINOIS REGIONAL WEATHER ROUNDUP
NATIONAL WEATHER SERVICE CHICAGO/ROMEOVILLE IL
1200 AM CDT THU JUL 02 2015

NOTE: "FAIR" INDICATES FEW OR NO CLOUDS BELOW 12,000 FEET WITH NO
SIGNIFICANT WEATHER AND/OR OBSTRUCTIONS TO VISIBILITY.

* THESE STATIONS ARE NOT UNDER NWS QUALITY CONTROL. THEY ALSO MAY NOT
  REPORT WEATHER SUCH AS PRECIPITATION OR FOG.

ILZ001-002-007-009-015-016-024-020600-
NORTHWEST ILLINOIS

CITY           SKY/WX    TMP DP  RH WIND       PRES   REMARKS
MOLINE         MOCLDY    66  53  63 NE10      29.97R
STERLING*      MOCLDY    57  54  88 E10       30.00R
$$

ILZ003-004-008-010-011-017-018-020600-
NORTH CENTRAL ILLINOIS

CITY           SKY/WX    TMP DP  RH WIND       PRES   REMARKS
ROCKFORD       PTCLDY    56  50  80 E5        30.02F
$$

ILZ005-006-012>014-019>023-020600-
NORTHEAST ILLINOIS

CITY           SKY/WX    TMP DP  RH WIND       PRES   REMARKS
CHICAGO-OHARE  MOCLDY    54  49  83 N6        30.00S
CHICAGO-MIDWAY CLOUDY    59  51  75 N8        29.99S
AURORA         MOCLDY    55  49  80 NE7       30.01S
JOLIET*        CLOUDY    57  54  87 NE7       29.99F
WAUKEGAN       CLEAR     50  50 100 CALM      30.00F
DUPAGE AIRPORT PTCLDY    53  49  86 NE5       30.00S
WHEELING       PTCLDY    53  49  86 N3        30.02S
ROMEOVILLE*    MOCLDY    55  51  85 NE8       30.00S
NORTHERLY ISL    N/A     56  51  84 N9          N/A
$$

LMZ740>746-020600-
SOUTHERN LAKE MICHIGAN

STATION/POSITION SKY/WX   TEMP    WIND        PRES    VSBY  WAVE
                          AIR SEA DIR/SP/G                  HT/PER
                          (F)     (DEG/KT/KT) (MB)    (MI)  (FT/S)
HARRISON CRIB              56     350/ 12/ 13   N/A
BURNHAM HARBOR             56      20/  8/ 12   N/A
CALUMET HARBOR             56     350/  7/  9   N/A
BURNS HARBOR               58      10/  9/ 11 1016.3S
MICHIGAN CITY              58     350/ 12/ 14   N/A
MICHIGAN CITY 6N           59 64   20/ 10/ 14   N/A           3/ 5
ST. JOSEPH                 59 63                N/A           3/ 5
$$

ILZ025>027-034>036-040-047-049-050-058-095>099-020600-
WEST-CENTRAL ILLINOIS

CITY           SKY/WX    TMP DP  RH WIND       PRES   REMARKS
QUINCY         LGT RAIN  69  66  90 NE7       29.90F
$$

ILZ028>032-037-038-041>044-048-051>054-059>061-020600-
CENTRAL ILLINOIS

CITY           SKY/WX    TMP DP  RH WIND       PRES   REMARKS
BLOOMINGTON    MOCLDY    62  58  87 NE12      29.97S
DECATUR        LGT RAIN  65  62  90 NE9       29.92F
PEORIA         CLOUDY    68  58  70 E15       29.95R
SPRINGFIELD    MOCLDY    70  64  81 NE13      29.90F
TAYLORVILLE    NOT AVBL
$$

ILZ033-039-045-046-055>057-062-063-020600-
EAST-CENTRAL ILLINOIS

CITY           SKY/WX    TMP DP  RH WIND       PRES   REMARKS
CHAMPAIGN      MOCLDY    63  57  81 NE10      29.94S
MATTOON        LGT RAIN  67  64  90 NE13      29.90F
$$

ILZ079-100>102-020600-
SOUTHWEST ILLINOIS

CITY           SKY/WX    TMP DP  RH WIND       PRES   REMARKS
BELLEVILLE     LGT RAIN  72  72 100 SW5       29.87R
CAHOKIA*       LGT RAIN  73  69  87 CALM      29.87R
$$

ILZ064>066-069>071-074>076-080>082-084>086-088>090-092>094-020600-
SOUTH-CENTRAL ILLINOIS

CITY           SKY/WX    TMP DP  RH WIND       PRES   REMARKS
CARBONDALE     TSTM      74  71  91 W5        29.89R FOG
MT. VERNON     CLOUDY    72  68  88 CALM      29.90R
CENTRALIA*     LGT RAIN  73  70  91 CALM      29.91R
$$

ILZ067-068-072-073-078-083-087-091-020600-
SOUTHEAST ILLINOIS

CITY           SKY/WX    TMP DP  RH WIND       PRES   REMARKS
LAWRENCEVILLE  LGT RAIN  69  69 100 CALM      29.89F
$$

ABBREVIATIONS USED IN REMARKS
   TC - TEMPERATURE IN CELSIUS
  WCI - WIND CHILL INDEX
   HX - HEAT INDEX
  VSB - VISIBILITY
$$



USA.gov is the U.S. government's official web portal to all federal, state and local government web resources and services.